Milford, UT

6:10 PM MDT on March 30, 2017 (GMT -0600)
Milford Municipal

Weather History for KMLF - July, 2013

Change the Weather History Date:

Tuesday, July 9, 2013

  Actual Average Record
Temperature  
Mean Temperature 77 °F -  
Max Temperature 99 °F 92 °F 102 °F (2002)
Min Temperature 55 °F 55 °F 48 °F (2003)
Cooling Degree Days 12    
Growing Degree Days 27 (Base 50)    
Moisture  
Dew Point 23 °F    
Average Humidity 14    
Maximum Humidity 39    
Minimum Humidity 4    
Precipitation  
Precipitation 0.00 in - - ()
Sea Level Pressure  
Sea Level Pressure 29.94 in    
Wind  
Wind Speed 10 mph (SSW)    
Max Wind Speed 22 mph    
Max Gust Speed 31 mph    
Visibility 10 miles    
Events      
Averages and records for this station are not official NWS values.
T = Trace of Precipitation, MM = Missing Value Source: NWS Daily Summary

Daily Weather History Graph

Daily Weather History Graph

Search for Another Location

Airport or City:

Trip Planner

Search our weather history database for the weather conditions in past years. The results will help you decide how hot, cold, wet, or windy it might be!

Date:

Astronomy

Jul. 09, 2013 Rise Set
Actual Time 6:16 AM MDT 8:57 PM MDT
Civil Twilight 5:45 AM MDT 9:29 PM MDT
Nautical Twilight 5:06 AM MDT 10:07 PM MDT
Astronomical Twilight 4:22 AM MDT 10:51 PM MDT
Moon 7:42 AM MDT (7/9) 9:39 PM MDT (7/9)
Length of Visible Light 15h 43m
Length of Day
14h 41m
New Moon, 2% of the Moon is Illuminated
Jul 9
New Moon
Jul 15
First Quarter
Jul 22
Full
Jul 29
Last Quarter
Aug 6
New

Hourly Weather History & Observations

Time (MDT) Temp. Dew Point Humidity Pressure Visibility Wind Dir Wind Speed Gust Speed Precip Events Conditions
12:52 AM 68.0 °F 24.1 °F 19% 29.92 in 10.0 mi WSW 4.6 mph - N/A   Clear
1:52 AM 69.1 °F 24.1 °F 18% 29.92 in 10.0 mi SSW 6.9 mph - N/A   Clear
2:52 AM 68.0 °F 23.0 °F 18% 29.92 in 10.0 mi SW 11.5 mph - N/A   Clear
3:52 AM 66.0 °F 24.1 °F 20% 29.92 in 10.0 mi SW 12.7 mph - N/A   Clear
4:52 AM 57.0 °F 32.0 °F 39% 29.95 in 10.0 mi South 5.8 mph - N/A   Clear
5:52 AM 57.0 °F 30.0 °F 36% 29.96 in 10.0 mi South 6.9 mph - N/A   Clear
6:52 AM 57.9 °F 28.9 °F 33% 29.99 in 10.0 mi SSW 8.1 mph - N/A   Clear
7:52 AM 61.0 °F 28.9 °F 30% 30.01 in 10.0 mi South 8.1 mph - N/A   Clear
8:52 AM 70.0 °F 33.1 °F 26% 30.02 in 10.0 mi South 9.2 mph - N/A   Clear
9:52 AM 81.0 °F 25.0 °F 13% 30.01 in 10.0 mi South 12.7 mph - N/A   Clear
10:52 AM 87.1 °F 19.9 °F 8% 30.00 in 10.0 mi South 15.0 mph - N/A   Clear
11:52 AM 91.0 °F 16.0 °F 6% 29.98 in 10.0 mi SSE 12.7 mph 17.3 mph N/A   Clear
12:52 PM 93.0 °F 10.9 °F 5% 29.98 in 10.0 mi South 12.7 mph 23.0 mph N/A   Clear
1:52 PM 95.0 °F 12.0 °F 5% 29.96 in 10.0 mi SW 12.7 mph 21.9 mph N/A   Clear
2:52 PM 96.1 °F 12.9 °F 5% 29.93 in 10.0 mi South 13.8 mph 23.0 mph N/A   Clear
3:52 PM 97.0 °F 12.0 °F 4% 29.91 in 10.0 mi Variable 5.8 mph - N/A   Clear
4:52 PM 97.0 °F 14.0 °F 5% 29.91 in 10.0 mi SSW 10.4 mph 31.1 mph N/A   Clear
5:52 PM 97.0 °F 16.0 °F 5% 29.90 in 10.0 mi South 21.9 mph 28.8 mph N/A   Clear
6:52 PM 93.9 °F 21.0 °F 7% 29.89 in 10.0 mi South 18.4 mph 29.9 mph N/A   Clear
7:52 PM 91.9 °F 17.1 °F 6% 29.90 in 10.0 mi SSW 15.0 mph 25.3 mph N/A   Clear
8:52 PM 82.0 °F 30.9 °F 16% 29.91 in 10.0 mi South 9.2 mph - N/A   Clear
9:52 PM 77.0 °F 27.0 °F 16% 29.92 in 10.0 mi South 8.1 mph - N/A   Clear
10:52 PM 72.0 °F 25.0 °F 17% 29.92 in 10.0 mi South 9.2 mph - N/A   Clear
11:52 PM 69.1 °F 26.1 °F 20% 29.93 in 10.0 mi SSW 6.9 mph - N/A   Clear